TimeCET,TemperatureF,Dew PointF,Humidity,Sea Level PressureIn,VisibilityMPH,Wind Direction,Wind SpeedMPH,Gust SpeedMPH,PrecipitationIn,Events,Conditions,WindDirDegrees,DateUTC
12:55 AM,48.2,21.2,34,29.98,-9999.0,North,23.0,36.8,N/A,,Clear,350,2012-12-08 23:55:00
1:00 AM,49,22,22,29.99,31,North,23.0,,,,,350,2012-12-09 00:00:00
1:55 AM,46.4,14.0,27,29.98,-9999.0,North,21.9,36.8,N/A,,Clear,360,2012-12-09 00:55:00
4:55 AM,46.4,10.4,23,30.04,-9999.0,North,12.7,-,N/A,,Clear,360,2012-12-09 03:55:00
5:55 AM,44.6,10.4,25,30.04,-9999.0,North,12.7,-,N/A,,Clear,360,2012-12-09 04:55:00
6:55 AM,44.6,10.4,25,30.06,-9999.0,NNE,10.4,-,N/A,,Clear,20,2012-12-09 05:55:00
7:00 AM,45,10,13,30.09,31,NNE,10.4,,,,,20,2012-12-09 06:00:00
7:55 AM,44.6,8.6,23,30.06,-9999.0,North,9.2,-,N/A,,Clear,350,2012-12-09 06:55:00
8:55 AM,44.6,10.4,25,30.09,-9999.0,NNE,4.6,-,N/A,,Clear,30,2012-12-09 07:55:00
9:55 AM,50.0,15.8,26,30.09,-9999.0,NE,4.6,-,N/A,,Clear,40,2012-12-09 08:55:00
10:55 AM,53.6,19.4,26,30.09,-9999.0,NNE,3.5,-,N/A,,Clear,20,2012-12-09 09:55:00
1:00 PM,54,22,17,30.11,31,SSE,4.6,,,,Scattered Clouds,160,2012-12-09 12:00:00
1:55 PM,51.8,24.8,35,30.06,-9999.0,South,17.3,-,N/A,,Clear,190,2012-12-09 12:55:00
2:55 PM,53.6,35.6,51,30.06,-9999.0,South,17.3,-,N/A,,Clear,190,2012-12-09 13:55:00
3:55 PM,53.6,37.4,54,30.04,-9999.0,SW,18.4,-,N/A,,Clear,230,2012-12-09 14:55:00
4:55 PM,51.8,39.2,62,30.04,-9999.0,WSW,15.0,-,N/A,,Clear,240,2012-12-09 15:55:00
5:55 PM,48.2,37.4,66,30.04,-9999.0,WSW,13.8,-,N/A,,Clear,250,2012-12-09 16:55:00
6:55 PM,48.2,37.4,66,30.01,-9999.0,WSW,16.1,-,N/A,,Clear,240,2012-12-09 17:55:00
7:00 PM,48,38,58,30.04,31,WSW,16.1,,,,,240,2012-12-09 18:00:00
7:55 PM,48.2,39.2,71,30.01,-9999.0,WSW,15.0,-,N/A,,Clear,240,2012-12-09 18:55:00
8:55 PM,48.2,35.6,62,30.01,-9999.0,WSW,19.6,-,N/A,,Clear,240,2012-12-09 19:55:00
9:55 PM,48.2,35.6,62,29.98,-9999.0,WSW,23.0,-,N/A,,Clear,240,2012-12-09 20:55:00
10:55 PM,48.2,39.2,71,29.95,-9999.0,WSW,21.9,-,N/A,,Clear,240,2012-12-09 21:55:00
11:55 PM,48.2,41.0,76,29.95,-9999.0,WSW,19.6,-,N/A,,Clear,240,2012-12-09 22:55:00